Location: Eastlake (historical)
(39.0077°N, 122.6678°W)
Time: 17:04:56
(UTC+00:00)

Meteor 1-31 Rocket - Pass Details

Date: 25 November 2020
Orbit: 520 x 546 km, 97.6° (Epoch: 23 January)

Event Time Altitude Azimuth Distance (km) Brightness Sun altitude
Rises 12:37:42 0° 19° (NNE) 2,689 6.5 -28.2°
Reaches altitude 10° 12:39:55 10° 26° (NNE) 1,789 5.6 -27.8°
Enters shadow 12:42:06 29° 46° (NE) 998 4.4 -27.4°
Exits shadow 12:45:33 24° 159° (SSE) 1,128 4.6 -26.7°
Drops below altitude 10° 12:47:15 10° 172° (S) 1,761 5.5 -26.4°
Sets 12:49:24 0° 179° (S) 2,641 6.4 -26.0°
